[[{"header":{"parameterUnit":"m.s-1","parameterCategory":1,"la1":30.2991,"la2":30.254,"lo1":-89.0895,"lo2":-89.0444,"dy":0.0017,"dx":0.0017,"nx":28,"ny":28,"refTime":"2025-06-06T21:00:00:Z","depth":0,"parameterNumber":2,"parameterNumberName":"U-component_of_WINDS"},"data":[0,0,0,0,0,0,0,0,0,0,0,0,0,0,0,0,0,0,0,0,0,0,0,0,0,0,0,0,0,0,0,0,0,0,0,0,0,0,0,0,0,0,0,0,0,0,0,0,0,0,0,0,0,0,0,0,0,0,5.2563,5.2564,0,5.2691,5.2692,5.2694,5.2639,5.2636,5.2633,5.263,5.276,5.2766,5.2773,0,0,0,0,0,0,0,0,0,0,0,0,0,5.2269,5.2274,5.2563,5.2564,5.2566,5.2691,5.2692,5.2694,5.264,5.2636,5.2632,5.2629,5.2758,5.2766,5.2773,0,0,0,0,0,0,0,0,0,0,0,0,0,5.2397,5.2276,5.2563,5.2554,5.2554,5.269,5.2692,5.2695,5.264,5.2636,5.2631,5.2627,5.2756,5.2765,5.2774,5.2926,0,0,5.2803,5.2808,0,0,0,0,0,0,0,0,5.2389,5.2407,5.2554,5.2555,5.2556,5.2644,5.2636,5.2772,5.2642,5.2608,5.263,5.2625,5.2725,5.2737,5.2771,5.2932,5.2938,5.2804,5.281,5.2814,5.2817,0,0,0,0,0,0,0,5.2381,5.2402,5.2613,5.2556,5.2557,5.2543,5.2556,5.2662,5.2691,5.261,5.2607,5.2623,5.2725,5.2762,5.2774,5.294,5.2804,5.2812,5.2818,5.2822,5.3228,5.3232,0,0,0,0,0,0,5.2372,5.2395,5.2609,5.2617,5.2459,5.2552,5.2566,5.262,5.269,5.2696,5.2626,5.262,5.2748,5.2763,5.2778,5.2957,5.2814,5.2823,5.2828,5.3223,5.3229,5.3234,0,0,0,0,0,0,5.2366,5.2392,5.2604,5.2505,5.2531,5.2562,5.2623,5.2625,5.2662,5.2702,5.2707,5.2659,5.2745,5.2765,5.2889,5.2961,5.2827,5.2836,5.3217,5.3224,5.3231,5.3318,0,0,0,0,0,0,5.2358,5.239,5.2448,5.2507,5.2537,5.2714,5.2628,5.2631,5.2679,5.2671,5.2734,5.274,5.2743,5.2875,5.2898,5.2972,5.2843,5.321,5.322,5.3229,5.3309,5.3328,5.3344,0,0,0,0,0,5.2347,5.2468,5.2452,5.2478,5.2611,5.2718,5.2735,5.2736,5.2685,5.2744,5.2769,5.2738,5.295,5.2888,5.2914,5.2991,5.3206,5.3217,5.3228,5.3301,5.3324,5.3344,0,0,0,0,0,0,5.2418,5.2476,5.2458,5.2602,5.2655,5.2708,5.2782,5.2761,5.283,5.282,5.2819,5.2833,5.2961,5.2989,5.2919,5.314,5.307,5.3087,5.3116,5.3139,5.3156,5.3145,5.2851,0,0,0,0,0,5.245,5.2533,5.2579,5.2702,5.2729,5.2752,5.2798,5.2795,5.285,5.2872,5.2906,5.2961,5.3039,5.3091,5.3166,5.3314,5.3325,5.338,5.3397,5.3411,5.3425,5.3502,5.3526,5.3271,5.3271,5.3271,0,0,5.2518,5.256,5.2612,5.2717,5.2758,5.2842,5.2771,5.2864,5.2926,5.2886,5.3004,5.3032,5.3092,5.3228,5.3289,5.3255,5.3498,5.3426,5.3437,5.3443,5.3516,5.354,5.3561,5.3279,5.3278,5.3277,0,0,5.2683,5.2725,5.2829,5.2871,5.2934,5.2948,5.2973,5.303,5.3046,5.3165,5.3136,5.321,5.3346,5.3389,5.3429,5.3609,5.3582,5.3634,5.3724,5.3799,5.3819,5.3837,5.3897,5.392,5.3648,5.3648,5.3649,0,5.2758,5.2885,5.2886,5.298,5.3026,5.2994,5.3099,5.314,5.3224,5.3256,5.3217,5.3385,5.3424,5.3568,5.3611,5.3646,5.3673,5.3625,5.3816,5.3834,5.385,5.3908,5.3932,5.3654,5.3653,5.3653,5.3652,0,5.2973,5.3061,5.3138,5.3219,5.3274,5.3374,5.3388,5.3443,5.3435,5.3452,5.3572,5.3618,5.3699,5.3734,5.3728,5.3876,5.3852,5.3816,5.3744,5.388,5.3934,5.3957,5.3662,5.366,5.3658,5.3657,0,0,5.3185,5.3264,5.3292,5.3327,5.3394,5.3461,5.3559,5.3639,5.3685,5.3744,5.3824,5.3939,5.3904,5.395,5.3948,5.4014,5.4149,5.3968,5.3969,5.3997,5.4312,5.4337,5.4363,5.4133,5.4137,5.4141,5.4305,0,5.3352,5.3522,5.3525,5.3681,5.376,5.3731,5.3815,5.3865,5.3884,5.3953,5.3974,5.4054,5.4004,5.4031,5.4095,5.4119,5.4212,5.4108,5.4204,5.4208,5.4187,5.4392,5.4419,5.4572,5.4327,5.4331,5.4333,0,5.3569,5.3634,5.3798,5.385,5.3884,5.396,5.4032,5.41,5.4154,5.4163,5.4213,5.4201,5.4298,5.4227,5.4359,5.4288,5.4328,5.4346,5.4352,5.4358,5.4276,5.44,5.4621,5.4643,5.4367,5.4365,5.4362,0,5.3702,5.3832,5.3945,5.3977,5.4042,5.4095,5.4125,5.4175,5.4222,5.4285,5.4315,5.439,5.4429,5.4486,5.4493,5.4441,5.4626,5.4555,5.4633,5.4633,5.4671,5.4668,5.4898,5.4703,5.4703,5.4702,5.4702,0,5.3887,5.3987,5.4005,5.4075,5.4186,5.4188,5.4297,5.4322,5.4367,5.444,5.442,5.4489,5.4496,5.4566,5.4573,5.4679,5.4699,5.4707,5.4707,5.4707,5.4705,5.473,5.4718,5.4709,5.4707,5.4706,5.4705,0,5.4053,5.407,5.4191,5.4243,5.4258,5.4337,5.438,5.4446,5.4463,5.4555,5.4577,5.4603,5.4685,5.4698,5.4795,5.4799,5.4925,5.4917,5.4907,5.4904,5.498,5.4971,5.5232,5.5264,5.5052,5.5054,5.5055,0,5.4168,5.4244,5.4303,5.4351,5.4383,5.446,5.4507,5.4512,5.4562,5.4629,5.4686,5.4766,5.4829,5.4961,5.4987,5.506,5.505,5.5137,5.5061,5.5058,5.5047,5.5041,5.5047,5.515,5.5153,5.5154,5.5156,0,5.4368,5.4372,5.4442,5.4514,5.4571,5.4628,5.4682,5.4722,5.4733,5.479,5.4873,5.4923,5.502,5.5098,5.517,5.52,5.5179,5.518,5.5201,5.52,5.5189,5.5192,5.4942,5.5173,5.5172,5.517,5.5169,5.5169,5.4509,5.4574,5.4626,5.4703,5.4744,5.4794,5.4857,5.4882,5.4951,5.5031,5.503,5.512,5.5171,5.5265,5.53,5.5369,5.5341,5.5373,5.538,5.5387,5.5392,5.5182,5.5383,5.5382,5.5382,5.5382,5.5381,0,5.4705,5.4737,5.4808,5.4883,5.4943,5.492,5.4978,5.503,5.5109,5.5159,5.5221,5.5315,5.539,5.5423,5.5497,5.5546,5.5538,5.5565,5.5559,5.5566,5.5415,5.5387,5.557,5.557,5.557,5.557,5.557,5.557,5.4814,5.4921,5.4932,5.5059,5.5089,5.5177,5.5212,5.5257,5.5296,5.5402,5.5464,5.5485,5.5527,5.5604,5.5671,5.5679,5.5705,5.5735,5.5738,5.5596,5.5577,5.5558,5.5532,5.5742,5.5742,5.5883,5.5884,5.5885]},{"header":{"parameterUnit":"m.s-1","parameterCategory":1,"la1":30.2991,"la2":30.254,"lo1":-89.0895,"lo2":-89.0444,"dy":0.0017,"dx":0.0017,"nx":28,"ny":28,"refTime":"2025-06-06T21:00:00:Z","depth":0,"parameterNumber":3,"parameterNumberName":"V-component_of_WINDS"},"data":[0,0,0,0,0,0,0,0,0,0,0,0,0,0,0,0,0,0,0,0,0,0,0,0,0,0,0,0,0,0,0,0,0,0,0,0,0,0,0,0,0,0,0,0,0,0,0,0,0,0,0,0,0,0,0,0,0,0,4.1658,4.166,0,4.1815,4.1817,4.1819,4.18,4.1797,4.1795,4.1793,4.1953,4.1959,4.1966,0,0,0,0,0,0,0,0,0,0,0,0,0,4.1341,4.1347,4.1658,4.166,4.1662,4.1815,4.1817,4.1819,4.18,4.1797,4.1794,4.1791,4.195,4.1958,4.1966,0,0,0,0,0,0,0,0,0,0,0,0,0,4.1486,4.1349,4.1658,4.1671,4.1674,4.1814,4.1817,4.182,4.1801,4.1797,4.1794,4.179,4.1948,4.1957,4.1967,4.2104,0,0,4.1998,4.2002,0,0,0,0,0,0,0,0,4.1478,4.1498,4.1667,4.167,4.1674,4.1784,4.1764,4.1915,4.1802,4.1753,4.1793,4.1788,4.19,4.1913,4.1951,4.2112,4.2119,4.1998,4.2004,4.2009,4.2012,0,0,0,0,0,0,0,4.1468,4.1491,4.172,4.167,4.1674,4.1669,4.1685,4.1792,4.1845,4.1757,4.1756,4.1775,4.1901,4.1941,4.1955,4.2121,4.1998,4.2007,4.2013,4.2017,4.2401,4.2405,0,0,0,0,0,0,4.1455,4.1483,4.1715,4.1725,4.1565,4.1678,4.1696,4.1752,4.1844,4.1855,4.1778,4.1773,4.1926,4.1943,4.196,4.2126,4.2009,4.2018,4.2024,4.2396,4.2401,4.2406,0,0,0,0,0,0,4.1448,4.1476,4.1709,4.1604,4.1633,4.1687,4.1751,4.1758,4.1798,4.186,4.1869,4.181,4.1924,4.1946,4.2068,4.2131,4.2022,4.2031,4.2391,4.2398,4.2404,4.2459,0,0,0,0,0,0,4.1439,4.1473,4.1526,4.1605,4.1639,4.1815,4.1755,4.1763,4.1816,4.1811,4.1893,4.1902,4.1923,4.2054,4.2078,4.2143,4.2039,4.2386,4.2394,4.2402,4.2452,4.2466,4.2479,0,0,0,0,0,4.1428,4.1536,4.1529,4.1557,4.1706,4.1819,4.1838,4.1859,4.1821,4.1874,4.1914,4.19,4.212,4.2066,4.2094,4.2162,4.2382,4.2392,4.2401,4.2446,4.2463,4.2479,0,0,0,0,0,0,4.1463,4.1546,4.154,4.1677,4.1741,4.1815,4.1884,4.1878,4.1954,4.1947,4.1969,4.1988,4.2111,4.2149,4.2087,4.2299,4.2246,4.2261,4.227,4.2288,4.2301,4.2289,4.2047,0,0,0,0,0,4.1487,4.1572,4.164,4.1754,4.1786,4.1829,4.1879,4.189,4.1957,4.1984,4.2033,4.2098,4.2182,4.2237,4.2317,4.2457,4.2474,4.2517,4.2531,4.2542,4.2555,4.2631,4.2651,4.2437,4.2437,4.2437,0,0,4.1537,4.1593,4.1645,4.1762,4.1813,4.19,4.1852,4.1947,4.2011,4.1998,4.2117,4.2154,4.2229,4.236,4.242,4.2395,4.2617,4.2554,4.2562,4.257,4.2643,4.2663,4.2681,4.2444,4.2443,4.2442,0,0,4.1672,4.1723,4.1824,4.1875,4.1953,4.1981,4.2005,4.208,4.2105,4.2224,4.2216,4.2293,4.2437,4.249,4.2536,4.269,4.268,4.2716,4.2787,4.286,4.2877,4.2892,4.2947,4.2966,4.2729,4.2729,4.2729,0,4.1725,4.1856,4.1876,4.1971,4.2022,4.2015,4.2116,4.2165,4.2265,4.2301,4.2271,4.2451,4.2501,4.2644,4.2682,4.2719,4.2747,4.2707,4.2873,4.2888,4.2903,4.2955,4.2976,4.2733,4.2732,4.2732,4.2731,0,4.1916,4.2007,4.2078,4.2175,4.2234,4.2332,4.2366,4.2424,4.2429,4.246,4.2581,4.264,4.2732,4.2766,4.2773,4.291,4.2892,4.2868,4.2815,4.2926,4.2976,4.2996,4.2738,4.2737,4.2736,4.2735,0,0,4.2079,4.2185,4.2211,4.2254,4.2338,4.2409,4.2506,4.2596,4.2644,4.2713,4.2795,4.2916,4.2894,4.2946,4.2958,4.3022,4.314,4.299,4.2992,4.3016,4.3295,4.3313,4.3336,4.3133,4.3137,4.3141,4.3288,0,4.2222,4.2394,4.2415,4.2567,4.2651,4.2644,4.2729,4.2789,4.282,4.2895,4.2929,4.3015,4.2979,4.301,4.3074,4.3112,4.3196,4.3102,4.3209,4.3213,4.3191,4.3362,4.3381,4.3518,4.3308,4.3311,4.3314,0,4.2413,4.2487,4.2648,4.272,4.2756,4.2832,4.2915,4.2987,4.3055,4.3073,4.3131,4.3134,4.3233,4.3176,4.3313,4.3248,4.3293,4.3318,4.3324,4.3335,4.327,4.3377,4.3562,4.3583,4.3344,4.3342,4.334,0,4.2516,4.2655,4.277,4.2807,4.2894,4.2947,4.2986,4.305,4.3103,4.3176,4.321,4.3293,4.3339,4.3403,4.3429,4.3384,4.3564,4.3509,4.3581,4.3581,4.362,4.3617,4.3815,4.3648,4.3648,4.3648,4.3647,0,4.2674,4.2773,4.2817,4.2887,4.2997,4.3019,4.3127,4.3164,4.3221,4.3297,4.3297,4.3368,4.3398,4.3474,4.3494,4.3604,4.3625,4.3642,4.3646,4.3642,4.364,4.3672,4.3664,4.3653,4.3652,4.3651,4.365,0,4.2807,4.2841,4.2965,4.3037,4.3057,4.3135,4.3196,4.3264,4.3293,4.339,4.3414,4.3461,4.3551,4.3582,4.3691,4.3705,4.3833,4.3829,4.381,4.3811,4.3882,4.3874,4.4107,4.4138,4.3951,4.3953,4.3955,0,4.2906,4.2982,4.3062,4.3113,4.3153,4.3236,4.329,4.3314,4.337,4.3452,4.351,4.3599,4.3672,4.3815,4.3859,4.3942,4.394,4.4016,4.3953,4.3946,4.3941,4.3936,4.3944,4.4028,4.403,4.4031,4.4032,0,4.3078,4.309,4.3168,4.3251,4.3315,4.3381,4.3446,4.3488,4.3521,4.3584,4.3676,4.3732,4.3843,4.3931,4.4016,4.4055,4.405,4.4052,4.4073,4.407,4.4056,4.4064,4.3842,4.4047,4.4045,4.4044,4.4043,4.4043,4.3197,4.3263,4.333,4.3416,4.3467,4.3527,4.3594,4.3631,4.3709,4.3801,4.381,4.3909,4.3974,4.4088,4.4131,4.4208,4.4187,4.4218,4.4226,4.4233,4.4238,4.4043,4.4224,4.4223,4.4223,4.4223,4.4222,0,4.3368,4.341,4.3489,4.3579,4.3647,4.3635,4.3706,4.3763,4.385,4.3911,4.3982,4.4088,4.4173,4.4223,4.4308,4.436,4.436,4.4382,4.4379,4.4388,4.4252,4.4225,4.4381,4.4381,4.4381,4.4381,4.4381,4.4381,4.3465,4.3577,4.3598,4.3735,4.3776,4.3873,4.3914,4.3969,4.4018,4.4136,4.4207,4.4239,4.4295,4.4385,4.4463,4.4475,4.4506,4.4531,4.4541,4.4414,4.4397,4.4382,4.4357,4.4537,4.4538,4.467,4.4671,4.4672]}]]